Погода в Камышине

Хотите узнать прогноз погоды в Камышине? Тогда Вам сюда: Погода в Камышине

Поиск расширенной информации на нашем сайте:

Полезная информация:

Новости сайта



02.01.2020
Опубликован Долгосрочный прогноз погоды по городам России и ближнего зарубежья на январь 2020 года.
Карты: Прогноз на январь и февраль 2020 года, Сравнение прогнозируемой аномалии приземной температуры воздуха на январь 2020 года по разным моделям.




Погода в Камышине - сегодня

Время (UTC), дата Ветер
(°,м/с) 
Видим.   Явления Облачность Т
(°С)
Тd
(°С)
f(%) Тe
(°С)
Pmin
(гПа)
dP
(гПа)
Po
(мм)
O2
(г/м3)
Тmin Tmax R s Состояние
почвы
09 16.01.21 230 (ЮЗ) 10 км  слаб. ливневой снег  8/8 300 м кучево-дожд. 
[Cb calv]
-4.1 -6.3 85 -8  1008.3  -0.3  745  305           
12 16.01.21 240 (ЮЗ) 8-13{14}  4000 м  слаб. ливневой снег [диам. гололёда 8 мм]  6/6 600 м кучево-дожд. 
[Cb calv]
-7 -11.8 69 -13  1009  0.5  745  309           
15 16.01.21 250 (З) 8-13{16}  10 км  позёмок{ливн. осадки} [диам. гололёда 8 мм]  1/1 600 м 
[Sc]
-11.8 -14.9 78 -19  1011.5  2.2  747  316    -3.9  0.6     
18 16.01.21 240 (ЮЗ) 7-10{13}  20000 м  {ливн. осадки}  ясно 
-14 -17.6 74 -21  1013.5  1.8  748  319           
21 16.01.21 260 (З) 7-11{12}  20000 м    ясно 
-14.6 -18.1 75 -21  1013.7  0.1  748  320           
00 17.01.21 260 (З) 8-13{13}  20000 м  позёмок  ясно 
-16.2 -19.3 77 -24  1013.9  -0.1  748  322           
03 17.01.21 280 (З) 4{13}  20000 м  [диам. гололёда 6 мм]  3/3 600 м 
[Sc]
-16.7 -19.7 78 -22  1014.8  0.9  749  323  -17.5      15  неравномерный
сухой снег
100% 
06 17.01.21 270 (З) 4{10}  10 км    9/0 верхняя 
[Ci fib]
-16.5 -19.7 76 -21  1015.6  0.8  749  323           
09 17.01.21 340 (С) 2{10}  10 км    8/0 верхняя 
[Ci fib]
-14.2 -18.4 70 -16  1015.5  749  320           
12 17.01.21 320 (СЗ) 10 км    6/0 верхняя 
[Ci fib]
-14.5 -18.1 74 -18  1015.4  -0.1  749  320           
15 17.01.21 тихо ()   10 км    9/0 средняя 
[Ac trans]
-15.1 -18.4 76 -15  1016.3  0.9  750  321    -14.1       
18 17.01.21 050 (СВ) 10 км    9/4 600 м средняя 
[Sc|Ac trans]
-14.2 -17.3 77 -16  1016.3  750  320           
21 17.01.21 060 (СВ) 10 км    9/9 600 м 
[Sc]
-14 -17 78 -19  1017.4  1.1  751  320           
00 18.01.21 050 (СВ) 10 км    10/10 600 м 
[Sc]
-14 -17.2 77 -19  1016.2  -1.2  750  320           
03 18.01.21 050 (СВ) 10 км    10/10 600 м 
[Sc]
-14.6 -17.7 77 -20  1016.9  0.6  750  321  -15.2      14  неравномерный
сухой снег
100% 
06 18.01.21 050 (СВ) 2000 м  слаб. снег  10/10 200 м 
[Frnb|Ns]
-15 -17.6 81 -21  1017.1  0.2  751  321  -15.3         
09 18.01.21 040 (СВ) 1000 м  слаб. снег  10/10 200 м 
[Frnb|Ns]
-14.1 -16.6 81 -19  1017.1  751  320           
12 18.01.21 010 (С) 2000 м  слаб. снег  10/10 200 м 
[Frnb|Ns]
-13.4 -16.1 80 -18  1016.3  -0.7  750  319           
15 18.01.21 060 (СВ) 10 км  {снег}  9/5 300 м средняя 
[Sc|Ac und]
-15.3 -17.8 81 -18  1016.6  0.2  750  322    -13.3     
18 18.01.21 360 (С) 10 км  {снег}  10/5 300 м средняя 
[Sc|Ac und]
-15.1 -17.7 80 -17  1017.2  0.6  751  322           
21 18.01.21 300 (СЗ) 10 км    9/3 300 м средняя 
[Sc|Ac und]
-16.7 -19.6 78 -19  1017.8  0.5  751  324           
00 19.01.21 310 (СЗ) 10 км    10/10 300 м 
[Sc]
-17.1 -20.1 77 -20  1018  0.2  751  324           
03 19.01.21 300 (СЗ) 10 км    10/10 300 м 
[Sc]
-16.1 -19 78 -18  1018.2  0.2  751  323  -19.1      14  неравномерный
сухой снег
100% 
06 19.01.21 190 (Ю) 10 км  в посл. час ливневой снег  10/10 300 м 
[Sc]
-14.6 -17.3 80 -17  1019.1  752  322           
09 19.01.21 280 (З) 10 км  {ливн. осадки}  9/9 300 м 
[Sc]
-11.9 -15.2 76 -12  1018.6  -0.3  752  318           
Время (UTC), дата Ветер
(°,м/с) 
Видим.   Явления Облачность Т
(°С)
Тd
(°С)
f(%) Тe
(°С)
Pmin
(гПа)
dP
(гПа)
Po
(мм)
O2
(г/м3)
Тmin Tmax R s Состояние
почвы

Для получения пояснительной информации подведите курсор к названию столбца.

ПОГОДА в Камышине - архив

Всё, что Вы хотите узнать о погоде в Камышине - удобно и подробно!

Выберите нужную дату (начиная с 1 января 2019* года) и нажмите кнопку "Найти".
Будут отображены архивные сводки погоды по пункту Камышин, начиная с указанной даты.


Отображать данные в формате CSV (для использования в таблицах Excel)


Внимание! Наш архив погоды предназначен исключительно для личного некоммерческого использования в познавательных целях. Если Вам необходимы официальные справки о состоянии погоды (для производственных, юридических, коммерческих и т.п. целей), обращайтесь в органы Росгидромета.

*Примечание: данная дата относится к архиву по метеостанциям СССР (Россия, СНГ, Балтия).
Архив по метеостанциям Зарубежной Европы и Азии (кроме Китая) хранится 10 дней, по другим регионам земного шара (Китай, Африка, Америка, Австралия, Океания) - 1 день.

Камышин - район местоположения метеостанции


Название, широта, долгота, высота метеостанции:
Камышин 50.1°ш. 45.4°д. 119 м над ур. моря [Российская Федерация]

Дополнительная информация

В oтличие oт бoльшинства пoгoдных сайтoв мы публикуем пoдрoбную метеoинфoрмацию в детальнoм прoфессиoнальнoм фoрмате.

Характеристики температуры и влажнoсти вoздуха измеряются на высoте 2 м в тени вдали oт зданий и деревьев.
Скoрoсть ветра измеряется на высoте 10 м (на урoвне рoста челoвека скoрoсть ветра ниже в 1.5-2 раза). Если метеoстанция нахoдится в гoрoде или в лесу, тo скoрoсть ветра занижена на 2-4 м/с пo сравнению с oткрытым местoм. Скoрoсть ветра над акватoриями крупных рек и oзёр, а также на вершинах хoлмoв на 2-5 м/с выше, чем в oбычных услoвиях.
Атмoсфернoе давление в разных тoчках местнoсти мoжет значительнo oтличаться oт давления на метеoстанции, в зависимoсти oт услoвий рельефа (при пoдъёме на 10 м давление пoнижается примернo на 1 мм рт.ст.).